FW1786 Weather Reports


Display with metric or nautical units.
time (UTC)temp
F
wind
direction
speed
MPH
gust
MPH
rain 1hr
in
rain 24hr
in
rain mn
in
humidity
%
barometer
mb
20260906183013 89 114 2.0 11.0 0.00 0.00 0.00 50 1014.3
20260906181526 92 209 3.0 11.0 0.00 0.00 0.00 46 1014.9
20260906180008 98 308 1.0 3.0 0.00 0.00 0.00 41 1014.2
20260906174506 98 333 1.0 3.0 0.00 0.00 0.00 38 1014.4
20260906173004 98 302 1.0 5.0 0.00 0.00 0.00 38 1014.8
20260906171504 98 37 1.0 3.0 0.00 0.00 0.00 38 1015.1
20260906170004 98 37 2.0 4.0 0.00 0.00 0.00 40 1015.2
20260906164505 97 175 1.0 3.0 0.00 0.00 0.00 43 1015.4
20260906163010 96 43 1.0 4.0 0.00 0.00 0.00 42 1015.5
20260906161509 94 80 0.0 3.0 0.00 0.00 0.00 48 1015.6
20260906160029 93 326 1.0 4.0 0.00 0.00 0.00 53 1015.8
20260906154509 92 330 1.0 5.0 0.00 0.00 0.00 50 1015.7
20260906153014 92 346 1.0 4.0 0.00 0.00 0.00 51 1015.7
20260906151515 90 168 1.0 5.0 0.00 0.00 0.00 54 1015.6
20260906150019 87 160 2.0 4.0 0.00 0.00 0.00 60 1015.6
20260906144510 85 226 0.0 2.0 0.00 0.00 0.00 64 1015.6
20260906143011 82 203 1.0 3.0 0.00 0.00 0.00 69 1015.7
20260906141519 80 213 0.0 2.0 0.00 0.00 0.00 74 1015.6
20260906140039 77 315 0.0 2.0 0.00 0.00 0.00 78 1015.7
20260906134518 76 129 0.0 1.0 0.00 0.00 0.00 82 1015.5
20260906133012 75 130 0.0 2.0 0.00 0.00 0.00 82 1015.6
20260906131516 73 96 0.0 2.0 0.00 0.00 0.00 84 1015.6
20260906130038 72 307 0.0 0.0 0.00 0.00 0.00 86 1015.7
20260906124526 72 307 0.0 1.0 0.00 0.00 0.00 87 1015.5
20260906123034 71 307 0.0 1.0 0.00 0.00 0.00 87 1015.3
20260906121516 71 307 0.0 1.0 0.00 0.00 0.00 87 1015.1
20260906120020 72 307 0.0 2.0 0.00 0.00 0.00 85 1015.0
20260906114519 72 306 0.0 3.0 0.00 0.00 0.00 84 1014.9
20260906113042 71 240 0.0 1.0 0.00 0.00 0.00 86 1014.9
20260906111535 71 229 0.0 1.0 0.00 0.00 0.00 86 1014.6
20260906110012 72 178 0.0 1.0 0.00 0.00 0.00 84 1014.6
20260906104511 72 179 1.0 2.0 0.00 0.00 0.00 84 1014.6
20260906103004 72 249 0.0 1.0 0.00 0.00 0.00 85 1014.8
20260906101512 72 249 0.0 2.0 0.00 0.00 0.00 86 1014.7
20260906100014 72 236 0.0 1.0 0.00 0.00 0.00 86 1014.8
20260906094508 72 236 0.0 1.0 0.00 0.00 0.00 84 1014.6
20260906093007 72 237 0.0 1.0 0.00 0.00 0.00 84 1014.7
20260906091519 73 109 1.0 4.0 0.00 0.00 0.00 84 1014.7
20260906090004 72 250 0.0 0.0 0.00 0.00 0.00 84 1014.0
20260906084526 72 250 0.0 1.0 0.00 0.00 0.00 85 1013.9
20260906083004 72 215 0.0 1.0 0.00 0.00 0.00 85 1013.8
20260906081526 72 205 0.0 2.0 0.00 0.00 0.00 85 1013.9
20260906080012 72 258 0.0 1.0 0.00 0.00 0.00 83 1014.0
20260906074508 73 261 0.0 0.0 0.00 0.00 0.00 84 1014.2
20260906073008 73 261 0.0 1.0 0.00 0.00 0.00 84 1014.3
20260906071506 73 232 0.0 1.0 0.00 0.00 0.00 83 1014.0
20260906070014 74 207 0.0 1.0 0.00 0.00 0.00 82 1014.2
20260906064518 74 180 0.0 1.0 0.00 0.00 0.00 81 1014.2
20260906063004 74 193 0.0 1.0 0.00 0.00 0.00 1014.3
20260906061507 75 202 0.0 2.0 0.00 0.00 0.00 1014.3
20260906060009 74 226 0.0 1.0 0.00 0.00 0.00 79 1014.3
20260906054512 74 228 0.0 1.0 0.00 0.00 0.00 1014.2
20260906053012 74 228 0.0 0.0 0.00 0.00 0.00 81 1014.0
20260906051512 74 228 0.0 1.0 0.00 0.00 0.00 80 1013.9
20260906050021 75 207 0.0 1.0 0.00 0.00 0.00 77 1013.8
20260906044514 75 206 0.0 1.0 0.00 0.00 0.00 77 1013.6
20260906043014 76 207 0.0 1.0 0.00 0.00 0.00 77 1013.8
20260906041513 77 198 0.0 1.0 0.00 0.00 0.00 76 1013.7
20260906040018 78 198 0.0 1.0 0.00 0.00 0.00 70 1013.7
20260906034514 78 207 0.0 1.0 0.00 0.00 0.00 71 1013.8
20260906033024 79 197 0.0 2.0 0.00 0.00 0.00 68 1013.8
20260906031525 79 246 0.0 1.0 0.00 0.00 0.00 70 1014.0
20260906030016 79 233 0.0 1.0 0.00 0.00 0.00 68 1013.8
20260906024515 80 205 0.0 1.0 0.00 0.00 0.00 65 1013.6
20260906023024 81 187 0.0 2.0 0.00 0.00 0.00 63 1013.6
20260906021527 82 208 1.0 4.0 0.00 0.00 0.00 61 1013.4
20260906020031 82 199 0.0 2.0 0.00 0.00 0.00 61 1013.2
20260906014533 81 203 0.0 1.0 0.00 0.00 0.00 69 1012.9
20260906013016 83 203 0.0 1.0 0.00 0.00 0.00 61 1012.7
20260906011516 83 203 0.0 1.0 0.00 0.00 0.00 64 1012.7
20260906010029 85 196 0.0 1.0 0.00 0.00 0.00 61 1012.4
20260906004536 88 195 0.0 1.0 0.00 0.00 0.00 49 1012.4
20260906003005 90 199 0.0 2.0 0.00 0.00 0.00 48 1012.4
20260906001504 91 200 0.0 2.0 0.00 0.00 0.00 45 1012.4
20260906000003 94 174 1.0 4.0 0.00 0.00 0.00 41 1012.3
20260905234504 94 175 1.0 3.0 0.00 0.00 0.00 43 1012.4
20260905233022 95 296 0.0 3.0 0.00 0.00 0.00 42 1012.3
20260905231511 96 290 1.0 2.0 0.00 0.00 0.00 39 1012.3
20260905230008 97 62 1.0 5.0 0.00 0.00 0.00 37 1012.0
20260905224507 99 321 1.0 5.0 0.00 0.00 0.00 38 1012.0
20260905223004 99 341 2.0 4.0 0.00 0.00 0.00 35 1012.0
20260905221514 98 254 0.0 3.0 0.00 0.00 0.00 35 1012.1
20260905220027 99 339 0.0 3.0 0.00 0.00 0.00 37 1012.2
20260905214504 99 302 1.0 3.0 0.00 0.00 0.00 38 1012.3
20260905213008 99 360 0.0 3.0 0.00 0.00 0.00 36 1012.5
20260905211508 99 44 1.0 6.0 0.00 0.00 0.00 37 1012.6
20260905210005 100 216 0.0 5.0 0.00 0.00 0.00 36 1012.8
20260905204527 100 350 1.0 4.0 0.00 0.00 0.00 34 1013.1
20260905203007 100 286 1.0 3.0 0.00 0.00 0.00 36 1013.4
20260905201512 99 11 0.0 5.0 0.00 0.00 0.00 35 1013.5
20260905200014 99 337 3.0 7.0 0.00 0.00 0.00 35 1013.7
20260905194509 99 329 1.0 6.0 0.00 0.00 0.00 36 1013.9
20260905193013 100 240 1.0 3.0 0.00 0.00 0.00 36 1014.1
20260905191507 99 180 2.0 5.0 0.00 0.00 0.00 37 1014.3
20260905190012 99 317 0.0 6.0 0.00 0.00 0.00 37 1014.6
20260905184515 98 345 1.0 4.0 0.00 0.00 0.00 40 1014.8